Regional Weather Roundup
Issued by NWS

Home | Current Version | Previous Version | Graphics & Text | Print | Product List | Glossary On
Versions: 1 2 3 4 5 6 7 8 9 10 11 12 13 14 15 16 17 18 19 20 21 22 23 24 25 26 27 28 29 30 31 32 33 34 35 36 37 38 39 40 41 42 43 44 45 46 47 48 49 50
986
ASUS43 KDMX 272206
RWRIA

WEATHER ROUNDUP FOR IOWA
NATIONAL WEATHER SERVICE DES MOINES IA
500 PM CDT THU APR 27 2017

NOTE: "FAIR" INDICATES FEW OR NO CLOUDS BELOW 12,000 FEET WITH NO
SIGNIFICANT WEATHER AND/OR OBSTRUCTIONS TO VISIBILITY.

* - THESE STATIONS ARE NOT NWS STATIONS...THUS NOT UNDER NWS
QUALITY CONTROL.  THEY ALSO DO NOT REPORT WEATHER SUCH
AS PRECIPITATION OR FOG.

IAZ001>003-012>014-020>022-031>034-043>046-272300-
   NORTHWEST IOWA

CITY           SKY/WX    TMP DP  RH WIND       PRES   REMARKS
CARROLL *      MOSUNNY   52  36  54 NW12G18   29.68S
CHEROKEE *     PTSUNNY   46  35  65 W6        29.70S
DENISON *      SUNNY     52  36  54 W12       29.70S
LE MARS *      SUNNY     52  34  50 W9G15     29.69F
ORANGE CITY *  PTSUNNY   48  36  61 NW6       29.68S
SHELDON *      PTSUNNY   45  34  65 NW12G17   29.67S
SIOUX CITY     SUNNY     53  36  52 NW13G18   29.69F
SPENCER        CLOUDY    42  31  64 NW15G22   29.69S
STORM LAKE *     N/A     45  32  61 NW9G21    29.69S
$$

IAZ055>058-069>071-079>083-090>094-272300-
   SOUTHWEST IOWA

CITY           SKY/WX    TMP DP  RH WIND       PRES   REMARKS
ATLANTIC *     SUNNY     55  34  44 W10G17    29.69S
AUDUBON *      MOSUNNY   55  36  47 W7        29.69S
CLARINDA *     MOSUNNY   59  34  38 VRB6G13   29.71S
COUNCIL BLFS * SUNNY     55  36  47 VRB6      29.69S
CRESTON *      SUNNY     55  34  44 W13G18    29.69F
HARLAN  *      SUNNY     54  34  47 W5G18     29.72S
LAMONI         MOSUNNY   59  40  49 W9        29.69F
RED OAK *      SUNNY     57  34  41 W8G16     29.70R
SHENANDOAH *   PTSUNNY   57  32  38 W8G17     29.70S
$$

IAZ047>049-059>061-072>074-084-272300-
   CENTRAL IOWA

CITY           SKY/WX    TMP DP  RH WIND       PRES   REMARKS
AMES           MOSUNNY   49  35  58 NW16      29.70S
ANKENY *       SUNNY     52  36  54 NW13      29.70S
BOONE *        MOSUNNY   46  34  61 NW12G20   29.70R
CHARITON *     MOSUNNY   55  37  50 W12G20    29.68S
DES MOINES     PTSUNNY   58  35  42 W15       29.68S
GRINNELL*      MOSUNNY   49  34  57 W12       29.71S
KNOXVILLE *    PTSUNNY   54  36  50 SW10G21   29.68S
MARSHALLTOWN   CLOUDY    43  32  65 W14       29.70S
NEWTON *       MOSUNNY   50  34  53 NW7G14    29.69R
PELLA *        PTSUNNY   53  37  53 NW9       29.70F
PERRY *          N/A     53  33  46 NW8       29.69S
$$

IAZ004>006-015-016-023>025-035-036-272300-
   NORTH CENTRAL IOWA

CITY           SKY/WX    TMP DP  RH WIND       PRES   REMARKS
ALGONA *       CLOUDY    41  30  65 NW16      29.69R
CLARION *      CLOUDY    41  30  65 W17       29.69S
ESTHERVILLE    CLOUDY    39  31  72 NW16      29.68S WCI  30
FORT DODGE *   CLOUDY    43  30  61 NW10      29.71S
MASON CITY     CLOUDY    38  28  67 W16       29.69R WCI  29
FOREST CITY *  CLOUDY    37  27  65 W18       29.67S WCI  27
WEBSTER CITY * CLOUDY    43  30  61 NW9G16    29.69S
IOWA FALLS *   CLOUDY    42  31  66 W15       29.71S
$$

IAZ007>011-017>019-026>030-037>042-050>054-066-272300-
   NORTHEAST IOWA

CITY           SKY/WX    TMP DP  RH WIND       PRES   REMARKS
CEDAR RAPIDS   CLOUDY    43  35  73 W16G23    29.70R
CHARLES CITY * CLOUDY    39  28  65 W16       29.68R WCI  30
CLINTON *      CLOUDY    43  36  76 W18       29.72R
DECORAH *      CLOUDY    37  28  70 W9G16     29.65R WCI  31
DUBUQUE        CLOUDY    40  32  73 W16       29.68R WCI  31
MONTICELLO *   CLOUDY    43  32  65 W15G23    29.70R
WATERLOO       CLOUDY    41  28  60 W17       29.69S
$$

IAZ064-065-067-068-078-272300-
   EAST CENTRAL IOWA

CITY           SKY/WX    TMP DP  RH WIND       PRES   REMARKS
DAVENPORT      CLOUDY    44  36  73 W16       29.72S
IOWA CITY      CLOUDY    47  35  63 W14       29.73S
MT. PLEASANT * CLOUDY    53  40  62 W12       29.72S
MUSCATINE *    CLOUDY    48  36  61 W12       29.74R
QUAD CITIES    CLOUDY    47  36  65 W13       29.73S
$$

IAZ062-063-075>077-085>089-095>099-272300-
   SOUTHEAST IOWA

CITY           SKY/WX    TMP DP  RH WIND       PRES   REMARKS
BURLINGTON     CLOUDY    51  41  68 SW7       29.72S
FAIRFIELD *    PTSUNNY   52  39  62 W8G15     29.71S
FORT MADISON * CLOUDY    55  46  71 SW8       29.73S
KEOKUK *       CLOUDY    55  41  58 SW14      29.72S
OSKALOOSA *    CLOUDY    52  37  56 W8        29.70S
CENTERVILLE *    N/A     57  37  47 W12       29.71S
OTTUMWA        PTSUNNY   56  39  53 W12G17    29.70S
WASHINGTON *   CLOUDY    50  39  66 W8G16     29.73R
$$

ABBREVIATIONS USED IN REMARKS
   TC - TEMPERATURES IN CELSIUS
  WCI - WIND CHILL INDEX
   HX - HEAT INDEX
  VSB - VISIBILITY
$$





USA.gov is the U.S. government's official web portal to all federal, state and local government web resources and services.